Glenwood, MN

8:38 AM CDT on March 29, 2017 (GMT -0500)
Glenwood Municipal

Weather History for KGHW - September, 2012

Change the Weather History Date:

Friday, September 14, 2012

  Actual Average Record
Temperature  
Mean Temperature 57 °F -  
Max Temperature 73 °F 69 °F 89 °F (1969)
Min Temperature 41 °F 46 °F 27 °F (1956)
Degree Days  
Heating Degree Days 8    
Growing Degree Days 7 (Base 50)    
Moisture  
Dew Point 31 °F    
Average Humidity 42    
Maximum Humidity 76    
Minimum Humidity 14    
Precipitation  
Precipitation 0.00 in - - ()
Sea Level Pressure  
Sea Level Pressure 30.30 in    
Wind  
Wind Speed 8 mph (ENE)    
Max Wind Speed 10 mph    
Max Gust Speed 16 mph    
Visibility 10 miles    
Events      
Averages and records for this station are not official NWS values.
T = Trace of Precipitation, MM = Missing Value Source: NWS Daily Summary

Daily Weather History Graph

Daily Weather History Graph

Search for Another Location

Airport or City:

Trip Planner

Search our weather history database for the weather conditions in past years. The results will help you decide how hot, cold, wet, or windy it might be!

Date:

Astronomy

Sep. 14, 2012 Rise Set
Actual Time 6:59 AM CDT 7:33 PM CDT
Civil Twilight 6:29 AM CDT 8:03 PM CDT
Nautical Twilight 5:53 AM CDT 8:38 PM CDT
Astronomical Twilight 5:16 AM CDT 9:15 PM CDT
Moon 5:22 AM CDT (9/14) 6:30 PM CDT (9/14)
Length of Visible Light 13h 34m
Length of Day
12h 34m
Waning Crescent, 2% of the Moon is Illuminated
Sep 14
Waning Crescent
Sep 15
New
Sep 22
First Quarter
Sep 29
Full
Oct 8
Last Quarter

Hourly Weather History & Observations

Time (CDT) Temp. Windchill Dew Point Humidity Pressure Visibility Wind Dir Wind Speed Gust Speed Precip Events Conditions
12:14 AM 55.4 °F - 33.8 °F 44% 30.32 in 10.0 mi NNE 9.2 mph - N/A   Clear
12:33 AM 55.4 °F - 30.2 °F 38% 30.32 in 10.0 mi NE 9.2 mph - N/A   Clear
12:53 AM 55.4 °F - 32.0 °F 41% 30.32 in 10.0 mi NE 9.2 mph 16.1 mph N/A   Clear
1:14 AM 53.6 °F - 33.8 °F 47% 30.31 in 10.0 mi ENE 8.1 mph - N/A   Clear
1:33 AM 51.8 °F - 33.8 °F 50% 30.30 in 10.0 mi East 6.9 mph - N/A   Clear
1:53 AM 50.0 °F - 33.8 °F 54% 30.31 in 10.0 mi NE 8.1 mph - N/A   Clear
2:14 AM 48.2 °F - 33.8 °F 58% 30.30 in 10.0 mi East 6.9 mph - N/A   Clear
2:33 AM 46.4 °F 42.4 °F 33.8 °F 62% 30.30 in 10.0 mi East 8.1 mph - N/A   Clear
2:53 AM 48.2 °F - 33.8 °F 58% 30.30 in 10.0 mi East 6.9 mph - N/A   Clear
3:14 AM 48.2 °F - 33.8 °F 58% 30.30 in 10.0 mi East 6.9 mph - N/A   Clear
3:33 AM 48.2 °F - 33.8 °F 58% 30.30 in 10.0 mi NNE 9.2 mph - N/A   Clear
3:53 AM 46.4 °F 42.9 °F 33.8 °F 62% 30.31 in 10.0 mi NNE 6.9 mph - N/A   Clear
4:14 AM 46.4 °F 42.4 °F 33.8 °F 62% 30.31 in 10.0 mi NNE 8.1 mph - N/A   Clear
4:33 AM 44.6 °F 40.7 °F 33.8 °F 66% 30.30 in 10.0 mi NNE 6.9 mph - N/A   Clear
4:54 AM 44.6 °F 40.2 °F 33.8 °F 66% 30.30 in 10.0 mi NE 8.1 mph - N/A   Clear
5:13 AM 44.6 °F 40.7 °F 33.8 °F 66% 30.30 in 10.0 mi NE 6.9 mph - N/A   Clear
5:33 AM 44.6 °F 39.2 °F 33.8 °F 66% 30.31 in 10.0 mi NE 10.4 mph - N/A   Clear
5:54 AM 42.8 °F 38.6 °F 33.8 °F 70% 30.32 in 10.0 mi NE 6.9 mph - N/A   Clear
6:13 AM 42.8 °F 38.0 °F 33.8 °F 70% 30.32 in 10.0 mi NE 8.1 mph - N/A   Clear
6:33 AM 42.8 °F 38.6 °F 33.8 °F 70% 30.32 in 10.0 mi NE 6.9 mph - N/A   Clear
6:54 AM 41.0 °F 35.8 °F 33.8 °F 76% 30.33 in 10.0 mi NE 8.1 mph - N/A   Clear
7:13 AM 42.8 °F 38.0 °F 33.8 °F 70% 30.33 in 10.0 mi NNE 8.1 mph - N/A   Clear
7:33 AM 42.8 °F 37.5 °F 35.6 °F 76% 30.33 in 10.0 mi NE 9.2 mph - N/A   Clear
7:54 AM 44.6 °F 40.2 °F 35.6 °F 71% 30.33 in 10.0 mi NE 8.1 mph - N/A   Clear
8:13 AM 48.2 °F - 37.4 °F 66% 30.34 in 10.0 mi NE 8.1 mph - N/A   Clear
8:33 AM 51.8 °F - 37.4 °F 58% 30.34 in 10.0 mi ENE 9.2 mph - N/A   Clear
8:54 AM 53.6 °F - 37.4 °F 54% 30.33 in 10.0 mi ENE 8.1 mph - N/A   Clear
9:13 AM 55.4 °F - 37.4 °F 51% 30.34 in 10.0 mi ENE 10.4 mph - N/A   Clear
9:33 AM 59.0 °F - 37.4 °F 45% 30.34 in 10.0 mi ENE 9.2 mph - N/A   Clear
9:54 AM 60.8 °F - 35.6 °F 39% 30.34 in 10.0 mi ENE 9.2 mph - N/A   Clear
10:13 AM 62.6 °F - 33.8 °F 34% 30.35 in 10.0 mi East 10.4 mph - N/A   Clear
10:33 AM 64.4 °F - 32.0 °F 30% 30.35 in 10.0 mi East 9.2 mph - N/A   Clear
11:13 AM 66.2 °F - 26.6 °F 23% 30.35 in 10.0 mi ENE 10.4 mph - N/A   Clear
11:34 AM 68.0 °F - 26.6 °F 21% 30.35 in 10.0 mi ENE 9.2 mph - N/A   Clear
11:53 AM 69.8 °F - 26.6 °F 20% 30.34 in 10.0 mi NE 10.4 mph - N/A   Clear
12:13 PM 69.8 °F - 24.8 °F 18% 30.34 in 10.0 mi East 6.9 mph - N/A   Clear
12:34 PM 71.6 °F - 24.8 °F 17% 30.34 in 10.0 mi East 10.4 mph - N/A   Clear
12:53 PM 71.6 °F - 23.0 °F 16% 30.34 in 10.0 mi East 5.8 mph - N/A   Clear
1:13 PM 71.6 °F - 23.0 °F 16% 30.33 in 10.0 mi ENE 8.1 mph - N/A   Clear
1:34 PM 71.6 °F - 23.0 °F 16% 30.33 in 10.0 mi ENE 8.1 mph - N/A   Clear
2:13 PM 71.6 °F - 21.2 °F 15% 30.32 in 10.0 mi East 6.9 mph - N/A   Clear
2:53 PM 73.4 °F - 21.2 °F 14% 30.31 in 10.0 mi SE 4.6 mph - N/A   Clear
3:13 PM 73.4 °F - 21.2 °F 14% 30.30 in 10.0 mi East 8.1 mph - N/A   Clear
3:34 PM 73.4 °F - 23.0 °F 15% 30.30 in 10.0 mi NE 3.5 mph - N/A   Clear
3:53 PM 73.4 °F - 23.0 °F 15% 30.29 in 10.0 mi ESE 8.1 mph - N/A   Clear
4:13 PM 73.4 °F - 23.0 °F 15% 30.29 in 10.0 mi East 6.9 mph - N/A   Clear
4:34 PM 73.4 °F - 23.0 °F 15% 30.29 in 10.0 mi Calm Calm - N/A   Clear
4:53 PM 73.4 °F - 23.0 °F 15% 30.28 in 10.0 mi Calm Calm - N/A   Clear
5:13 PM 73.4 °F - 24.8 °F 16% 30.28 in 10.0 mi East 5.8 mph - N/A   Clear
5:34 PM 73.4 °F - 24.8 °F 16% 30.28 in 10.0 mi SE 3.5 mph - N/A   Clear
5:53 PM 71.6 °F - 24.8 °F 17% 30.27 in 10.0 mi East 3.5 mph - N/A   Clear
6:13 PM 71.6 °F - 24.8 °F 17% 30.27 in 10.0 mi ESE 4.6 mph - N/A   Clear
6:34 PM 71.6 °F - 26.6 °F 19% 30.27 in 10.0 mi East 4.6 mph - N/A   Clear
6:53 PM 68.0 °F - 33.8 °F 28% 30.26 in 10.0 mi East 5.8 mph - N/A   Clear
7:13 PM 64.4 °F - 35.6 °F 34% 30.26 in 10.0 mi ENE 6.9 mph - N/A   Clear
7:34 PM 60.8 °F - 35.6 °F 39% 30.25 in 10.0 mi ENE 8.1 mph - N/A   Clear
7:53 PM 59.0 °F - 35.6 °F 42% 30.25 in 10.0 mi ENE 8.1 mph - N/A   Clear
8:13 PM 57.2 °F - 35.6 °F 44% 30.25 in 10.0 mi ENE 8.1 mph - N/A   Clear
8:34 PM 57.2 °F - 35.6 °F 44% 30.25 in 10.0 mi ENE 8.1 mph - N/A   Clear
8:53 PM 57.2 °F - 35.6 °F 44% 30.25 in 10.0 mi ENE 8.1 mph - N/A   Clear
9:14 PM 55.4 °F - 35.6 °F 47% 30.25 in 10.0 mi East 8.1 mph - N/A   Clear
9:53 PM 55.4 °F - 35.6 °F 47% 30.25 in 10.0 mi ENE 9.2 mph - N/A   Clear
10:14 PM 55.4 °F - 35.6 °F 47% 30.24 in 10.0 mi ENE 8.1 mph - N/A   Clear
10:34 PM 53.6 °F - 35.6 °F 51% 30.24 in 10.0 mi ENE 8.1 mph - N/A   Clear
10:53 PM 53.6 °F - 35.6 °F 51% 30.24 in 10.0 mi ENE 8.1 mph - N/A   Clear
11:14 PM 51.8 °F - 35.6 °F 54% 30.24 in 10.0 mi ENE 8.1 mph - N/A   Clear
11:33 PM 51.8 °F - 37.4 °F 58% 30.24 in 10.0 mi East 8.1 mph - N/A   Clear
11:53 PM 51.8 °F - 37.4 °F 58% 30.23 in 10.0 mi East 8.1 mph - N/A   Clear